Almeria, Spain

9:46 PM CEST on August 17, 2017 (GMT +0200)
Almeria

Weather History for LEAM - January, 2013

Change the Weather History Date:

Monday, January 14, 2013

  Actual Average Record
Temperature  
Mean Temperature 57 °F -  
Max Temperature 62 °F 59 °F 65 °F (2014)
Min Temperature 52 °F 46 °F 37 °F (2003)
Degree Days  
Heating Degree Days 8    
Growing Degree Days 7 (Base 50)    
Moisture  
Dew Point 34 °F    
Average Humidity 40    
Maximum Humidity 67    
Minimum Humidity 24    
Precipitation  
Precipitation 0.00 in 0.03 in - ()
Sea Level Pressure  
Sea Level Pressure 30.10 in    
Wind  
Wind Speed 14 mph ()    
Max Wind Speed 24 mph    
Max Gust Speed 37 mph    
Visibility 6.2 miles    
Events      
Averages and records for this station are not official NWS values.
T = Trace of Precipitation, MM = Missing Value Source: Averaged Metar Reports

Daily Weather History Graph

Daily Weather History Graph

Search for Another Location

Airport or City:

Trip Planner

Search our weather history database for the weather conditions in past years. The results will help you decide how hot, cold, wet, or windy it might be!

Date:

Astronomy

Jan. 14, 2013 Rise Set
Actual Time 8:21 AM CET 6:15 PM CET
Civil Twilight 7:53 AM CET 6:44 PM CET
Nautical Twilight 7:21 AM CET 7:16 PM CET
Astronomical Twilight 6:50 AM CET 7:47 PM CET
Moon 9:52 AM CET (1/14) 9:39 PM CET (1/14)
Length of Visible Light 10h 50m
Length of Day
9h 54m
Waxing Crescent, 9% of the Moon is Illuminated
Jan 14
Waxing Crescent
Jan 19
First Quarter
Jan 27
Full
Feb 3
Last Quarter
Feb 10
New

Hourly Weather History & Observations

Time (CET) Temp. Dew Point Humidity Pressure Visibility Wind Dir Wind Speed Gust Speed Precip Events Conditions
1:00 AM 55 °F 32 °F 29% 30.00 in - NNW 18.4 mph - -  
5:00 AM 53.6 °F 35.6 °F 51% 30.04 in - Variable 2.3 mph - N/A   Clear
5:30 AM 55.4 °F 30.2 °F 38% 30.04 in 6.2 mi NNW 16.1 mph 28.8 mph N/A   Partly Cloudy
6:00 AM 55.4 °F 30.2 °F 38% 30.04 in 6.2 mi NNW 21.9 mph 33.4 mph N/A   Partly Cloudy
6:30 AM 55.4 °F 30.2 °F 38% 30.04 in 6.2 mi NNW 18.4 mph - N/A   Partly Cloudy
7:00 AM 53 °F 28 °F 26% 30.08 in 22 mi NNW 20.7 mph - -   Scattered Clouds
7:00 AM 55.4 °F 30.2 °F 38% 30.06 in 6.2 mi NNW 18.4 mph - N/A   Partly Cloudy
7:30 AM 55.4 °F 28.4 °F 36% 30.09 in 6.2 mi NW 21.9 mph - N/A   Partly Cloudy
8:00 AM 55.4 °F 28.4 °F 36% 30.09 in 6.2 mi NNW 24.2 mph - N/A   Partly Cloudy
8:30 AM 53.6 °F 28.4 °F 38% 30.09 in 6.2 mi NNW 24.2 mph 36.8 mph N/A   Partly Cloudy
9:00 AM 53.6 °F 28.4 °F 38% 30.12 in 6.2 mi NNW 23.0 mph - N/A   Partly Cloudy
9:30 AM 55.4 °F 26.6 °F 33% 30.09 in 6.2 mi NW 21.9 mph 34.5 mph N/A   Partly Cloudy
10:00 AM 57.2 °F 26.6 °F 31% 30.12 in 6.2 mi NNW 23.0 mph - N/A   Partly Cloudy
10:30 AM 59.0 °F 26.6 °F 29% 30.15 in 6.2 mi NW 17.3 mph - N/A   Partly Cloudy
11:00 AM 59.0 °F 26.6 °F 29% 30.15 in 6.2 mi NNW 18.4 mph - N/A   Partly Cloudy
11:30 AM 60.8 °F 26.6 °F 27% 30.15 in 6.2 mi NW 18.4 mph - N/A   Partly Cloudy
12:00 PM 62.6 °F 28.4 °F 27% 30.15 in 6.2 mi NW 17.3 mph - N/A   Partly Cloudy
12:30 PM 64.4 °F 26.6 °F 24% 30.15 in 6.2 mi NW 21.9 mph - N/A   Partly Cloudy
1:00 PM 62 °F 37 °F 28% 30.15 in 31 mi West 10.4 mph - -   Scattered Clouds
1:00 PM 62.6 °F 41.0 °F 45% 30.12 in 6.2 mi WSW 9.2 mph - N/A   Partly Cloudy
1:30 PM 62.6 °F 41.0 °F 45% 30.12 in 6.2 mi SSW 10.4 mph - N/A   Partly Cloudy
2:00 PM 62.6 °F 41.0 °F 45% 30.12 in 6.2 mi South 9.2 mph - N/A   Partly Cloudy
2:30 PM 62.6 °F 35.6 °F 37% 30.09 in 6.2 mi SSW 9.2 mph - N/A   Partly Cloudy
3:00 PM 62.6 °F 41.0 °F 45% 30.09 in 6.2 mi SW 11.5 mph - N/A   Partly Cloudy
3:30 PM 62.6 °F 42.8 °F 48% 30.12 in 6.2 mi SW 12.7 mph - N/A   Partly Cloudy
4:00 PM 60.8 °F 46.4 °F 59% 30.12 in 6.2 mi SW 13.8 mph - N/A   Partly Cloudy
4:30 PM 60.8 °F 42.8 °F 52% 30.09 in 6.2 mi SW 11.5 mph - N/A   Partly Cloudy
5:00 PM 60.8 °F 44.6 °F 55% 30.12 in 6.2 mi SW 11.5 mph - N/A   Partly Cloudy
5:30 PM 60.8 °F 42.8 °F 52% 30.09 in 6.2 mi SW 11.5 mph - N/A   Partly Cloudy
6:00 PM 59.0 °F 41.0 °F 51% 30.12 in 6.2 mi SW 9.2 mph - N/A   Partly Cloudy
6:30 PM 57.2 °F 44.6 °F 63% 30.12 in 6.2 mi SW 6.9 mph - N/A   Partly Cloudy
7:00 PM 56 °F 44 °F 54% 30.14 in 28 mi SW 6.9 mph - -   Scattered Clouds
7:00 PM 57.2 °F 46.4 °F 67% 30.12 in 6.2 mi SW 6.9 mph - N/A   Partly Cloudy
8:00 PM 59.0 °F 32.0 °F 36% 30.12 in 6.2 mi WNW 11.5 mph - N/A   Partly Cloudy
9:00 PM 59.0 °F 28.4 °F 31% 30.09 in 6.2 mi NW 19.6 mph - N/A   Partly Cloudy
9:30 PM 59.0 °F 28.4 °F 31% 30.12 in 6.2 mi NW 21.9 mph - N/A   Partly Cloudy
10:00 PM 57.2 °F 26.6 °F 31% 30.12 in 6.2 mi NW 16.1 mph - N/A   Partly Cloudy
10:30 PM 57.2 °F 28.4 °F 33% 30.12 in 6.2 mi WNW 13.8 mph - N/A   Partly Cloudy